O3B FM19 (44113 NORAD) Tracking and Keplerian Element Data

This shows tracking and keplerian element data for the satellite.

Feedback or suggestion? Click here.




ElementValue
Catalog44113
NameO3B FM19
Epoch Orbit535
Epoch Day200.70610708
Epoch Year2019
RAAN10.2074
Inclination0.0445
Eccentricity0.0002767
Argument of Perigee102.0907
Mean Anonmoly247.7283
Mean Motion5.001194
Decay Rate-2.8E-07
L11 44113U 19020B 19200.70610708 -.00000028 00000-0 00000-0 0 9997
L22 44113 0.0445 10.2074 0002767 102.0907 247.7283 5.00119400 5359

Live tracking and technical data element details for O3B FM19 (NORAD 44113). O3B FM19 can be tracked NOW for your location showing map with azimuth and elevation plus other details from your city location.

Track the satellite on the map from your city or location and see movement details for azimuth, elevation, latitude, longitude, range, height, and movement on the map or in text.







IsCatalogInMostPopularTable: catalog: 44113, numindb: 27
Update: records affected: 1



GetName: 44113 O3B FM19

Hit Count: updated at: Sat, 20 Jul 2019 21:48:22 GMT